Tracking 18945 objects as of 19-Jan-2018
HD Live streaming from Space Station
objects crossing your sky now

FENGYUN 1C DEB

Track FENGYUN 1C DEB now!
10-day predictions


NORAD ID: 30283
Int'l Code: 1999-025YU
Perigee: 759.6 km
Apogee: 1,038.4 km
Inclination: 99.0 °
Period: 102.8 minutes
Semi major axis: 7269 km
RCS: 0.0855 m2 (small)
Launch date: May 10, 1999
Source: People's Republic of China (PRC)
Launch site: Taiyaun Space Center, China (TSC)

Note: This is SATELLITE DEBRIS
aabbcc
Your satellite tracking list
Your tracking list is empty




NASA's NSSDC Master Catalog

Two Line Element Set (TLE):
1 30283U 99025YU  18018.58501887 -.00000383 +00000-0 -19537-3 0  9995
2 30283 098.9707 055.5459 0191751 144.1817 006.9083 14.00563993562921
Source of the keplerian elements: AFSPC